Time,TemperatureF,DewpointF,PressureIn,WindDirection,WindDirectionDegrees,WindSpeedMPH,WindSpeedGustMPH,Humidity,HourlyPrecipIn,Conditions,Clouds,dailyrainin,SoftwareType,DateUTC
2013-02-21 00:00:00,21.2,18.2,30.05,SSW,200,1.0,1.0,88,0.00,,---,0.00,VWS V13.00,2013-02-21 08:00:00,
2013-02-21 00:05:00,21.2,18.2,30.05,SSW,200,1.0,1.0,88,0.00,,---,0.00,VWS V13.00,2013-02-21 08:05:00,
2013-02-21 00:10:00,21.1,18.1,30.04,SSW,200,0.0,1.0,88,0.00,,---,0.00,VWS V13.00,2013-02-21 08:10:00,
2013-02-21 00:15:00,21.0,18.0,30.04,SSW,199,2.0,2.0,88,0.00,,---,0.00,VWS V13.00,2013-02-21 08:15:00,
2013-02-21 00:20:00,20.9,17.9,30.05,SSW,199,1.0,2.0,88,0.00,,---,0.00,VWS V13.00,2013-02-21 08:20:00,
2013-02-21 00:25:00,20.8,18.1,30.05,SSW,200,1.0,2.0,89,0.00,,---,0.00,VWS V13.00,2013-02-21 08:25:00,
2013-02-21 00:30:00,20.6,17.9,30.05,SSW,200,2.0,2.0,89,0.00,,---,0.00,VWS V13.00,2013-02-21 08:30:00,
2013-02-21 00:35:00,20.6,17.9,30.05,SSW,200,0.0,3.0,89,0.00,,---,0.00,VWS V13.00,2013-02-21 08:35:00,
2013-02-21 00:40:00,20.5,17.8,30.05,SSW,199,0.0,3.0,89,0.00,,---,0.00,VWS V13.00,2013-02-21 08:40:00,
2013-02-21 00:45:00,20.5,17.8,30.05,SSW,200,0.0,3.0,89,0.00,,---,0.00,VWS V13.00,2013-02-21 08:45:00,
2013-02-21 00:50:00,20.5,17.8,30.06,SSW,200,1.0,3.0,89,0.00,,---,0.00,VWS V13.00,2013-02-21 08:50:00,
2013-02-21 00:55:00,20.4,17.7,30.06,SSW,199,0.0,3.0,89,0.00,,---,0.00,VWS V13.00,2013-02-21 08:55:00,
2013-02-21 01:00:00,20.4,17.7,30.06,SSW,199,0.0,0.0,89,0.00,,---,0.00,VWS V13.00,2013-02-21 09:00:00,
2013-02-21 01:05:00,20.4,17.7,30.06,SSW,200,0.0,0.0,89,0.00,,---,0.00,VWS V13.00,2013-02-21 09:05:00,
2013-02-21 01:10:00,20.5,18.0,30.06,SSW,200,0.0,0.0,90,0.00,,---,0.00,VWS V13.00,2013-02-21 09:10:00,
2013-02-21 01:15:00,20.6,18.1,30.06,SSW,200,0.0,0.0,90,0.00,,---,0.00,VWS V13.00,2013-02-21 09:15:00,
2013-02-21 01:20:00,20.6,18.1,30.06,SSW,200,0.0,0.0,90,0.00,,---,0.00,VWS V13.00,2013-02-21 09:20:00,
2013-02-21 01:25:00,20.7,18.2,30.06,SSW,199,1.0,2.0,90,0.00,,---,0.00,VWS V13.00,2013-02-21 09:25:00,
2013-02-21 01:30:00,20.8,18.3,30.06,SSW,199,0.0,0.0,90,0.00,,---,0.00,VWS V13.00,2013-02-21 09:30:00,
2013-02-21 01:35:00,20.9,18.4,30.06,SSW,200,0.0,2.0,90,0.00,,---,0.00,VWS V13.00,2013-02-21 09:35:00,
2013-02-21 01:40:00,21.0,18.5,30.06,SSW,200,0.0,2.0,90,0.00,,---,0.00,VWS V13.00,2013-02-21 09:40:00,
2013-02-21 01:45:00,21.1,18.6,30.06,SSW,199,0.0,2.0,90,0.00,,---,0.00,VWS V13.00,2013-02-21 09:45:00,
2013-02-21 01:50:00,21.1,18.6,30.06,SSW,200,0.0,2.0,90,0.00,,---,0.00,VWS V13.00,2013-02-21 09:50:00,
2013-02-21 01:55:00,21.2,18.7,30.07,SSW,200,0.0,2.0,90,0.00,,---,0.00,VWS V13.00,2013-02-21 09:55:00,
2013-02-21 02:00:00,21.3,18.8,30.07,SSW,199,0.0,0.0,90,0.00,,---,0.00,VWS V13.00,2013-02-21 10:00:00,
2013-02-21 02:05:00,21.4,19.2,30.07,SSW,200,0.0,1.0,91,0.00,,---,0.00,VWS V13.00,2013-02-21 10:05:00,
2013-02-21 02:10:00,21.5,19.3,30.07,SSW,199,0.0,1.0,91,0.00,,---,0.00,VWS V13.00,2013-02-21 10:10:00,
2013-02-21 02:15:00,21.6,19.4,30.06,SSW,199,0.0,1.0,91,0.00,,---,0.00,VWS V13.00,2013-02-21 10:15:00,
2013-02-21 02:20:00,21.7,19.5,30.06,SSW,200,0.0,1.0,91,0.00,,---,0.00,VWS V13.00,2013-02-21 10:20:00,
2013-02-21 02:25:00,21.8,19.6,30.06,SSW,200,0.0,1.0,91,0.00,,---,0.00,VWS V13.00,2013-02-21 10:25:00,
2013-02-21 02:30:00,21.9,19.7,30.06,SSW,199,0.0,0.0,91,0.00,,---,0.00,VWS V13.00,2013-02-21 10:30:00,
2013-02-21 02:35:00,22.0,19.8,30.06,SSW,199,0.0,0.0,91,0.00,,---,0.00,VWS V13.00,2013-02-21 10:35:00,
2013-02-21 02:40:00,22.1,19.9,30.06,SSW,200,0.0,0.0,91,0.00,,---,0.00,VWS V13.00,2013-02-21 10:40:00,
2013-02-21 02:45:00,22.2,20.0,30.06,SSW,200,0.0,0.0,91,0.00,,---,0.00,VWS V13.00,2013-02-21 10:45:00,
2013-02-21 02:50:00,22.3,20.1,30.06,SSW,200,0.0,0.0,91,0.00,,---,0.00,VWS V13.00,2013-02-21 10:50:00,
2013-02-21 02:55:00,22.4,20.2,30.06,SSW,200,0.0,0.0,91,0.00,,---,0.00,VWS V13.00,2013-02-21 10:55:00,
2013-02-21 03:00:00,22.5,20.3,30.06,SSW,199,0.0,0.0,91,0.00,,---,0.00,VWS V13.00,2013-02-21 11:00:00,
2013-02-21 03:05:00,22.6,20.4,30.06,SSW,200,0.0,0.0,91,0.00,,---,0.00,VWS V13.00,2013-02-21 11:05:00,
2013-02-21 03:10:00,22.7,20.5,30.06,SSW,200,0.0,0.0,91,0.00,,---,0.00,VWS V13.00,2013-02-21 11:10:00,
2013-02-21 03:15:00,22.8,20.6,30.06,SSW,199,0.0,0.0,91,0.00,,---,0.00,VWS V13.00,2013-02-21 11:15:00,
2013-02-21 03:20:00,22.9,20.7,30.06,SSW,199,2.0,2.0,91,0.00,,---,0.00,VWS V13.00,2013-02-21 11:20:00,
2013-02-21 03:25:00,23.1,20.9,30.06,SSW,200,0.0,2.0,91,0.00,,---,0.00,VWS V13.00,2013-02-21 11:25:00,
2013-02-21 03:30:00,23.4,21.2,30.06,SSW,200,0.0,0.0,91,0.00,,---,0.00,VWS V13.00,2013-02-21 11:30:00,
2013-02-21 03:35:00,23.5,21.3,30.06,SSW,199,0.0,0.0,91,0.00,,---,0.00,VWS V13.00,2013-02-21 11:35:00,
2013-02-21 03:40:00,23.7,21.7,30.05,SSW,199,0.0,0.0,92,0.00,,---,0.00,VWS V13.00,2013-02-21 11:40:00,
2013-02-21 03:45:00,23.8,21.8,30.05,SSW,200,0.0,1.0,92,0.00,,---,0.00,VWS V13.00,2013-02-21 11:45:00,
2013-02-21 03:49:00,23.9,21.9,30.06,SSW,200,0.0,1.0,92,0.00,,---,0.00,VWS V13.00,2013-02-21 11:49:00,
2013-02-21 03:54:00,23.9,21.7,30.06,SSW,200,0.0,1.0,91,0.00,,---,0.00,VWS V13.00,2013-02-21 11:54:00,
2013-02-21 03:59:00,24.0,22.0,30.06,SSW,200,0.0,0.0,92,0.00,,---,0.00,VWS V13.00,2013-02-21 11:59:00,
2013-02-21 04:04:00,24.0,22.0,30.06,SSW,199,0.0,0.0,92,0.00,,---,0.00,VWS V13.00,2013-02-21 12:04:00,
2013-02-21 04:09:00,24.1,22.1,30.06,SSW,200,0.0,0.0,92,0.00,,---,0.00,VWS V13.00,2013-02-21 12:09:00,
2013-02-21 04:14:00,24.2,22.2,30.06,SSW,200,0.0,0.0,92,0.00,,---,0.00,VWS V13.00,2013-02-21 12:14:00,
2013-02-21 04:19:00,24.2,22.2,30.06,SSW,200,0.0,0.0,92,0.00,,---,0.00,VWS V13.00,2013-02-21 12:19:00,
2013-02-21 04:24:00,24.3,22.3,30.06,SSW,199,0.0,0.0,92,0.00,,---,0.00,VWS V13.00,2013-02-21 12:24:00,
2013-02-21 04:29:00,24.3,22.1,30.06,SSW,200,0.0,0.0,91,0.00,,---,0.00,VWS V13.00,2013-02-21 12:29:00,
2013-02-21 04:34:00,24.4,22.2,30.06,SSW,200,0.0,0.0,91,0.00,,---,0.00,VWS V13.00,2013-02-21 12:34:00,
2013-02-21 04:39:00,24.3,22.1,30.06,SSW,199,0.0,0.0,91,0.00,,---,0.00,VWS V13.00,2013-02-21 12:39:00,
2013-02-21 04:44:00,24.3,22.1,30.06,SSW,199,0.0,0.0,91,0.00,,---,0.00,VWS V13.00,2013-02-21 12:44:00,
2013-02-21 04:49:00,24.4,22.2,30.06,SSW,200,0.0,0.0,91,0.00,,---,0.00,VWS V13.00,2013-02-21 12:49:00,
2013-02-21 04:54:00,24.3,22.1,30.06,SSW,200,0.0,0.0,91,0.00,,---,0.00,VWS V13.00,2013-02-21 12:54:00,
2013-02-21 04:59:00,24.3,22.1,30.07,SSW,200,0.0,0.0,91,0.00,,---,0.00,VWS V13.00,2013-02-21 12:59:00,
2013-02-21 05:04:00,24.3,22.1,30.07,SSW,199,0.0,1.0,91,0.00,,---,0.00,VWS V13.00,2013-02-21 13:04:00,
2013-02-21 05:09:00,24.2,22.0,30.07,SSW,200,0.0,1.0,91,0.00,,---,0.00,VWS V13.00,2013-02-21 13:09:00,
2013-02-21 05:14:00,24.1,21.9,30.07,SSW,200,0.0,2.0,91,0.00,,---,0.00,VWS V13.00,2013-02-21 13:14:00,
2013-02-21 05:19:00,24.1,21.9,30.07,SSW,199,0.0,2.0,91,0.00,,---,0.00,VWS V13.00,2013-02-21 13:19:00,
2013-02-21 05:24:00,24.0,21.8,30.07,SSW,199,0.0,2.0,91,0.00,,---,0.00,VWS V13.00,2013-02-21 13:24:00,
2013-02-21 05:29:00,24.1,21.9,30.06,SSW,200,0.0,0.0,91,0.00,,---,0.00,VWS V13.00,2013-02-21 13:29:00,
2013-02-21 05:34:00,24.1,21.9,30.06,SSW,200,0.0,0.0,91,0.00,,---,0.00,VWS V13.00,2013-02-21 13:34:00,
2013-02-21 05:39:00,24.1,21.9,30.06,SSW,200,0.0,0.0,91,0.00,,---,0.00,VWS V13.00,2013-02-21 13:39:00,
2013-02-21 05:44:00,24.1,21.9,30.06,SSW,199,0.0,0.0,91,0.00,,---,0.00,VWS V13.00,2013-02-21 13:44:00,
2013-02-21 05:49:00,24.1,21.9,30.06,SSW,199,0.0,0.0,91,0.00,,---,0.00,VWS V13.00,2013-02-21 13:49:00,
2013-02-21 05:54:00,24.1,21.9,30.06,SSW,200,0.0,0.0,91,0.00,,---,0.00,VWS V13.00,2013-02-21 13:54:00,
2013-02-21 05:59:00,24.1,21.9,30.07,SSW,200,0.0,0.0,91,0.00,,---,0.00,VWS V13.00,2013-02-21 13:59:00,
2013-02-21 06:04:00,24.2,22.0,30.07,SSW,200,0.0,0.0,91,0.00,,---,0.00,VWS V13.00,2013-02-21 14:04:00,
2013-02-21 06:09:00,24.2,22.0,30.06,SSW,199,0.0,0.0,91,0.00,,---,0.00,VWS V13.00,2013-02-21 14:09:00,
2013-02-21 06:14:00,24.2,22.0,30.06,SSW,200,0.0,0.0,91,0.00,,---,0.00,VWS V13.00,2013-02-21 14:14:00,
2013-02-21 06:19:00,24.2,22.0,30.06,SSW,200,0.0,0.0,91,0.00,,---,0.00,VWS V13.00,2013-02-21 14:19:00,
2013-02-21 06:24:00,24.2,22.0,30.06,SSW,199,0.0,0.0,91,0.00,,---,0.00,VWS V13.00,2013-02-21 14:24:00,
2013-02-21 06:29:00,24.2,22.0,30.06,SSW,200,0.0,0.0,91,0.00,,---,0.00,VWS V13.00,2013-02-21 14:29:00,
2013-02-21 06:34:00,24.2,22.0,30.06,SSW,200,0.0,2.0,91,0.00,,---,0.00,VWS V13.00,2013-02-21 14:34:00,
2013-02-21 06:39:00,24.3,22.1,30.06,SSW,200,0.0,2.0,91,0.00,,---,0.00,VWS V13.00,2013-02-21 14:39:00,
2013-02-21 06:44:00,24.3,22.1,30.06,SSW,199,1.0,2.0,91,0.00,,---,0.00,VWS V13.00,2013-02-21 14:44:00,
2013-02-21 06:49:00,24.4,22.2,30.06,SSW,199,0.0,2.0,91,0.00,,---,0.00,VWS V13.00,2013-02-21 14:49:00,
2013-02-21 06:54:00,24.4,22.2,30.06,SSW,200,0.0,2.0,91,0.00,,---,0.00,VWS V13.00,2013-02-21 14:54:00,
2013-02-21 06:59:00,24.5,22.2,30.07,SSW,200,0.0,0.0,91,0.00,,---,0.00,VWS V13.00,2013-02-21 14:59:00,
2013-02-21 07:04:00,24.6,22.6,30.07,SSW,200,0.0,0.0,92,0.00,,---,0.00,VWS V13.00,2013-02-21 15:04:00,
2013-02-21 07:09:00,24.7,22.7,30.07,SSW,200,0.0,0.0,92,0.00,,---,0.00,VWS V13.00,2013-02-21 15:09:00,
2013-02-21 07:14:00,24.8,22.8,30.07,SSW,199,0.0,0.0,92,0.00,,---,0.00,VWS V13.00,2013-02-21 15:14:00,
2013-02-21 07:19:00,24.9,22.9,30.07,SSW,200,0.0,0.0,92,0.00,,---,0.00,VWS V13.00,2013-02-21 15:19:00,
2013-02-21 07:24:00,25.0,23.0,30.08,SSW,200,0.0,0.0,92,0.00,,---,0.00,VWS V13.00,2013-02-21 15:24:00,
2013-02-21 07:29:00,25.1,23.1,30.08,SSW,199,0.0,0.0,92,0.00,,---,0.00,VWS V13.00,2013-02-21 15:29:00,
2013-02-21 07:34:00,25.1,23.1,30.08,SSW,199,0.0,0.0,92,0.00,,---,0.00,VWS V13.00,2013-02-21 15:34:00,
2013-02-21 07:39:00,25.2,23.2,30.08,SSW,200,0.0,0.0,92,0.00,,---,0.00,VWS V13.00,2013-02-21 15:39:00,
2013-02-21 07:44:00,25.3,23.3,30.08,SSW,200,2.0,3.0,92,0.00,,---,0.00,VWS V13.00,2013-02-21 15:44:00,
2013-02-21 07:49:00,25.4,23.4,30.08,WNW,294,0.0,3.0,92,0.00,,---,0.00,VWS V13.00,2013-02-21 15:49:00,
2013-02-21 07:54:00,25.5,23.5,30.08,WNW,294,0.0,3.0,92,0.00,,---,0.00,VWS V13.00,2013-02-21 15:54:00,
2013-02-21 07:59:00,25.5,23.5,30.08,WNW,294,0.0,0.0,92,0.00,,---,0.00,VWS V13.00,2013-02-21 15:59:00,
2013-02-21 08:04:00,25.6,23.6,30.09,WNW,294,0.0,1.0,92,0.00,,---,0.00,VWS V13.00,2013-02-21 16:04:00,
2013-02-21 08:09:00,25.7,23.7,30.09,WNW,294,0.0,1.0,92,0.00,,---,0.00,VWS V13.00,2013-02-21 16:09:00,
2013-02-21 08:14:00,25.8,23.8,30.09,WNW,294,0.0,1.0,92,0.00,,---,0.00,VWS V13.00,2013-02-21 16:14:00,
2013-02-21 08:19:00,26.0,24.0,30.09,WNW,294,0.0,1.0,92,0.00,,---,0.00,VWS V13.00,2013-02-21 16:19:00,
2013-02-21 08:24:00,26.1,24.1,30.09,WNW,294,0.0,1.0,92,0.00,,---,0.00,VWS V13.00,2013-02-21 16:24:00,
2013-02-21 08:29:00,26.3,24.3,30.09,WNW,294,0.0,0.0,92,0.00,,---,0.00,VWS V13.00,2013-02-21 16:29:00,
2013-02-21 08:34:00,26.4,24.4,30.09,WNW,294,0.0,0.0,92,0.00,,---,0.00,VWS V13.00,2013-02-21 16:34:00,
2013-02-21 08:39:00,26.6,26.6,30.08,WNW,294,0.0,0.0,100,0.00,,---,0.00,VWS V13.00,2013-02-21 16:39:00,
2013-02-21 08:44:00,26.8,24.8,30.08,WNW,294,0.0,1.0,92,0.00,,---,0.00,VWS V13.00,2013-02-21 16:44:00,
2013-02-21 08:49:00,27.0,25.0,30.08,WNW,294,2.0,2.0,92,0.00,,---,0.00,VWS V13.00,2013-02-21 16:49:00,
2013-02-21 08:54:00,27.1,25.1,30.08,WNW,294,0.0,2.0,92,0.00,,---,0.00,VWS V13.00,2013-02-21 16:54:00,
2013-02-21 08:59:00,27.2,25.2,30.08,WNW,294,0.0,0.0,92,0.00,,---,0.00,VWS V13.00,2013-02-21 16:59:00,
2013-02-21 09:04:00,27.4,25.1,30.08,WNW,294,1.0,1.0,91,0.00,,---,0.00,VWS V13.00,2013-02-21 17:04:00,
2013-02-21 09:09:00,27.4,25.1,30.08,WNW,294,1.0,2.0,91,0.00,,---,0.00,VWS V13.00,2013-02-21 17:09:00,
2013-02-21 09:14:00,27.5,25.2,30.08,WNW,294,0.0,2.0,91,0.00,,---,0.00,VWS V13.00,2013-02-21 17:14:00,
2013-02-21 09:19:00,27.6,25.3,30.08,WNW,294,0.0,2.0,91,0.00,,---,0.00,VWS V13.00,2013-02-21 17:19:00,
2013-02-21 09:24:00,27.8,25.5,30.08,WNW,294,0.0,2.0,91,0.00,,---,0.00,VWS V13.00,2013-02-21 17:24:00,
2013-02-21 09:29:00,27.9,25.6,30.08,WNW,294,0.0,0.0,91,0.00,,---,0.00,VWS V13.00,2013-02-21 17:29:00,
2013-02-21 09:34:00,28.2,25.9,30.08,WNW,294,0.0,0.0,91,0.00,,---,0.00,VWS V13.00,2013-02-21 17:34:00,
2013-02-21 09:39:00,28.5,26.2,30.08,WNW,294,0.0,0.0,91,0.00,,---,0.00,VWS V13.00,2013-02-21 17:39:00,
2013-02-21 09:44:00,28.7,26.4,30.08,WNW,294,0.0,0.0,91,0.00,,---,0.00,VWS V13.00,2013-02-21 17:44:00,
2013-02-21 09:49:00,28.8,26.5,30.08,WNW,294,0.0,0.0,91,0.00,,---,0.00,VWS V13.00,2013-02-21 17:49:00,
2013-02-21 09:54:00,29.1,26.8,30.08,WNW,294,0.0,0.0,91,0.00,,---,0.00,VWS V13.00,2013-02-21 17:54:00,
2013-02-21 09:59:00,29.4,26.8,30.08,WNW,294,0.0,0.0,90,0.00,,---,0.00,VWS V13.00,2013-02-21 17:59:00,
2013-02-21 10:04:00,29.8,27.2,30.07,WNW,294,0.0,0.0,90,0.00,,---,0.00,VWS V13.00,2013-02-21 18:04:00,
2013-02-21 10:09:00,30.0,27.4,30.07,WNW,294,0.0,0.0,90,0.00,,---,0.00,VWS V13.00,2013-02-21 18:09:00,
2013-02-21 10:14:00,30.2,27.6,30.07,WNW,294,0.0,1.0,90,0.00,,---,0.00,VWS V13.00,2013-02-21 18:14:00,
2013-02-21 10:19:00,30.3,27.5,30.07,WNW,294,0.0,2.0,89,0.00,,---,0.00,VWS V13.00,2013-02-21 18:19:00,
2013-02-21 10:24:00,30.5,27.6,30.07,WNW,294,0.0,2.0,89,0.00,,---,0.00,VWS V13.00,2013-02-21 18:24:00,
2013-02-21 10:29:00,30.6,27.8,30.07,WNW,294,0.0,0.0,89,0.00,,---,0.00,VWS V13.00,2013-02-21 18:29:00,
2013-02-21 10:34:00,30.8,28.0,30.07,WNW,294,0.0,0.0,89,0.00,,---,0.00,VWS V13.00,2013-02-21 18:34:00,
2013-02-21 10:39:00,31.0,28.1,30.07,WNW,294,0.0,0.0,89,0.00,,---,0.00,VWS V13.00,2013-02-21 18:39:00,
2013-02-21 10:44:00,31.3,28.4,30.07,WNW,294,0.0,0.0,89,0.00,,---,0.00,VWS V13.00,2013-02-21 18:44:00,
2013-02-21 10:49:00,31.5,28.6,30.07,WNW,294,0.0,0.0,89,0.00,,---,0.00,VWS V13.00,2013-02-21 18:49:00,
2013-02-21 10:54:00,31.6,28.5,30.06,WNW,294,0.0,0.0,88,0.00,,---,0.00,VWS V13.00,2013-02-21 18:54:00,
2013-02-21 10:59:00,31.8,28.7,30.07,WNW,294,0.0,0.0,88,0.00,,---,0.00,VWS V13.00,2013-02-21 18:59:00,
2013-02-21 11:04:00,31.8,28.7,30.06,WNW,294,0.0,0.0,88,0.00,,---,0.00,VWS V13.00,2013-02-21 19:04:00,
2013-02-21 11:09:00,31.9,28.8,30.07,WNW,294,0.0,0.0,88,0.00,,---,0.00,VWS V13.00,2013-02-21 19:09:00,
2013-02-21 11:14:00,32.0,28.9,30.06,WNW,294,0.0,0.0,88,0.00,,---,0.00,VWS V13.00,2013-02-21 19:14:00,
2013-02-21 11:19:00,32.0,28.9,30.06,WNW,294,0.0,0.0,88,0.00,,---,0.00,VWS V13.00,2013-02-21 19:19:00,
2013-02-21 11:24:00,32.1,29.0,30.06,WNW,294,0.0,0.0,88,0.00,,---,0.00,VWS V13.00,2013-02-21 19:24:00,
2013-02-21 11:29:00,32.3,29.1,30.06,WNW,294,0.0,0.0,88,0.00,,---,0.00,VWS V13.00,2013-02-21 19:29:00,
2013-02-21 11:34:00,32.3,29.4,30.06,WNW,294,0.0,0.0,89,0.00,,---,0.00,VWS V13.00,2013-02-21 19:34:00,
2013-02-21 11:39:00,32.3,29.4,30.05,WNW,294,0.0,0.0,89,0.00,,---,0.00,VWS V13.00,2013-02-21 19:39:00,
2013-02-21 11:44:00,32.4,29.5,30.05,WNW,294,0.0,0.0,89,0.00,,---,0.00,VWS V13.00,2013-02-21 19:44:00,
2013-02-21 11:49:00,32.5,29.6,30.04,WNW,294,0.0,0.0,89,0.00,,---,0.00,VWS V13.00,2013-02-21 19:49:00,
2013-02-21 11:54:00,32.6,30.0,30.04,WNW,294,0.0,0.0,90,0.00,,---,0.00,VWS V13.00,2013-02-21 19:54:00,
2013-02-21 11:59:00,32.7,30.1,30.04,WNW,294,0.0,0.0,90,0.00,,---,0.00,VWS V13.00,2013-02-21 19:59:00,
2013-02-21 12:04:00,32.8,30.2,30.05,WNW,294,0.0,0.0,90,0.00,,---,0.00,VWS V13.00,2013-02-21 20:04:00,
2013-02-21 12:09:00,32.9,30.3,30.05,WNW,294,0.0,0.0,90,0.00,,---,0.00,VWS V13.00,2013-02-21 20:09:00,
2013-02-21 12:14:00,33.0,30.4,30.05,WNW,294,0.0,0.0,90,0.00,,---,0.00,VWS V13.00,2013-02-21 20:14:00,
2013-02-21 12:19:00,33.0,30.7,30.05,WNW,294,0.0,0.0,91,0.00,,---,0.00,VWS V13.00,2013-02-21 20:19:00,
2013-02-21 12:24:00,33.2,30.9,30.04,WNW,294,0.0,0.0,91,0.00,,---,0.00,VWS V13.00,2013-02-21 20:24:00,
2013-02-21 12:29:00,33.3,31.0,30.04,WNW,294,0.0,0.0,91,0.00,,---,0.00,VWS V13.00,2013-02-21 20:29:00,
2013-02-21 12:34:00,33.4,31.1,30.04,WNW,294,1.0,1.0,91,0.00,,---,0.00,VWS V13.00,2013-02-21 20:34:00,
2013-02-21 12:39:00,33.5,31.2,30.04,WNW,294,0.0,3.0,91,0.00,,---,0.00,VWS V13.00,2013-02-21 20:39:00,
2013-02-21 12:44:00,33.5,31.2,30.03,WNW,294,0.0,3.0,91,0.01,,---,0.01,VWS V13.00,2013-02-21 20:44:00,
2013-02-21 12:49:00,33.6,31.3,30.03,SSW,202,0.0,3.0,91,0.01,,---,0.01,VWS V13.00,2013-02-21 20:49:00,
2013-02-21 12:54:00,33.7,31.4,30.03,SSE,153,2.0,3.0,91,0.01,,---,0.01,VWS V13.00,2013-02-21 20:54:00,
2013-02-21 12:59:00,33.6,31.3,30.03,SSE,154,1.0,2.0,91,0.02,,---,0.02,VWS V13.00,2013-02-21 20:59:00,
2013-02-21 13:04:00,33.6,31.5,30.03,SSE,154,0.0,2.0,92,0.02,,---,0.02,VWS V13.00,2013-02-21 21:04:00,
2013-02-21 13:09:00,33.6,31.3,30.03,SSE,154,1.0,2.0,91,0.02,,---,0.02,VWS V13.00,2013-02-21 21:09:00,
2013-02-21 13:14:00,33.6,31.3,30.03,SSE,153,0.0,3.0,91,0.02,,---,0.02,VWS V13.00,2013-02-21 21:14:00,
2013-02-21 13:19:00,33.6,31.5,30.03,SSE,154,0.0,3.0,92,0.02,,---,0.02,VWS V13.00,2013-02-21 21:19:00,
2013-02-21 13:24:00,33.6,31.5,30.03,SSE,153,0.0,3.0,92,0.03,,---,0.03,VWS V13.00,2013-02-21 21:24:00,
2013-02-21 13:29:00,33.6,31.5,30.03,SSE,154,0.0,0.0,92,0.03,,---,0.03,VWS V13.00,2013-02-21 21:29:00,
2013-02-21 13:34:00,33.6,31.5,30.03,SSE,154,0.0,3.0,92,0.03,,---,0.03,VWS V13.00,2013-02-21 21:34:00,
2013-02-21 13:39:00,33.6,31.5,30.03,SSE,153,0.0,3.0,92,0.03,,---,0.03,VWS V13.00,2013-02-21 21:39:00,
2013-02-21 13:44:00,33.6,31.5,30.03,SSE,154,0.0,3.0,92,0.04,,---,0.04,VWS V13.00,2013-02-21 21:44:00,
2013-02-21 13:49:00,33.6,31.5,30.03,SSE,154,0.0,3.0,92,0.04,,---,0.04,VWS V13.00,2013-02-21 21:49:00,
2013-02-21 13:54:00,33.6,31.5,30.03,SSE,154,0.0,3.0,92,0.04,,---,0.04,VWS V13.00,2013-02-21 21:54:00,
2013-02-21 13:59:00,33.6,31.5,30.03,SSE,154,0.0,0.0,92,0.04,,---,0.04,VWS V13.00,2013-02-21 21:59:00,
2013-02-21 14:04:00,33.6,31.5,30.03,SSE,153,0.0,2.0,92,0.02,,---,0.04,VWS V13.00,2013-02-21 22:04:00,
2013-02-21 14:09:00,33.7,31.6,30.03,SSE,153,0.0,2.0,92,0.02,,---,0.05,VWS V13.00,2013-02-21 22:09:00,
2013-02-21 14:14:00,33.8,31.7,30.03,SSE,154,0.0,2.0,92,0.03,,---,0.05,VWS V13.00,2013-02-21 22:14:00,
2013-02-21 14:19:00,33.9,31.8,30.03,SSE,153,0.0,2.0,92,0.04,,---,0.06,VWS V13.00,2013-02-21 22:19:00,
2013-02-21 14:24:00,34.0,31.9,30.03,SSE,153,0.0,3.0,92,0.04,,---,0.06,VWS V13.00,2013-02-21 22:24:00,
2013-02-21 14:29:00,34.1,32.0,30.03,SSE,154,0.0,2.0,92,0.05,,---,0.07,VWS V13.00,2013-02-21 22:29:00,
2013-02-21 14:34:00,34.3,32.5,30.03,SSE,153,0.0,2.0,93,0.04,,---,0.07,VWS V13.00,2013-02-21 22:34:00,
2013-02-21 14:39:00,34.4,32.6,30.03,SSE,154,0.0,2.0,93,0.05,,---,0.08,VWS V13.00,2013-02-21 22:39:00,
2013-02-21 14:44:00,34.4,32.6,30.02,SSE,153,1.0,2.0,93,0.05,,---,0.08,VWS V13.00,2013-02-21 22:44:00,
2013-02-21 14:49:00,34.4,32.3,30.02,SSE,153,0.0,2.0,92,0.05,,---,0.08,VWS V13.00,2013-02-21 22:49:00,
2013-02-21 14:54:00,34.3,32.2,30.02,SSE,154,1.0,2.0,92,0.05,,---,0.08,VWS V13.00,2013-02-21 22:54:00,
2013-02-21 14:59:00,34.2,32.4,30.02,SSE,154,2.0,2.0,93,0.05,,---,0.08,VWS V13.00,2013-02-21 22:59:00,
2013-02-21 15:04:00,34.2,32.1,30.02,SSE,154,0.0,2.0,92,0.05,,---,0.09,VWS V13.00,2013-02-21 23:04:00,
2013-02-21 15:09:00,34.3,32.5,30.02,SSE,153,0.0,2.0,93,0.05,,---,0.09,VWS V13.00,2013-02-21 23:09:00,
2013-02-21 15:14:00,34.4,32.6,30.01,SSE,154,0.0,2.0,93,0.05,,---,0.09,VWS V13.00,2013-02-21 23:14:00,
2013-02-21 15:19:00,34.4,32.6,30.01,SSE,153,0.0,2.0,93,0.05,,---,0.09,VWS V13.00,2013-02-21 23:19:00,
2013-02-21 15:24:00,34.4,32.6,30.01,SSE,153,0.0,2.0,93,0.05,,---,0.09,VWS V13.00,2013-02-21 23:24:00,
2013-02-21 15:29:00,34.4,32.6,30.01,SSE,153,0.0,0.0,93,0.05,,---,0.09,VWS V13.00,2013-02-21 23:29:00,
2013-02-21 15:34:00,34.4,32.6,30.02,SSE,153,0.0,0.0,93,0.02,,---,0.09,VWS V13.00,2013-02-21 23:34:00,
2013-02-21 15:39:00,34.4,32.6,30.02,SSE,154,0.0,1.0,93,0.02,,---,0.09,VWS V13.00,2013-02-21 23:39:00,
2013-02-21 15:44:00,34.4,32.6,30.02,SSE,153,0.0,1.0,93,0.02,,---,0.09,VWS V13.00,2013-02-21 23:44:00,
2013-02-21 15:49:00,34.4,32.6,30.02,SSE,154,0.0,2.0,93,0.03,,---,0.10,VWS V13.00,2013-02-21 23:49:00,
2013-02-21 15:54:00,34.4,32.6,30.02,SSE,153,2.0,3.0,93,0.03,,---,0.10,VWS V13.00,2013-02-21 23:54:00,
2013-02-21 15:59:00,34.4,32.6,30.02,NE,41,2.0,4.0,93,0.03,,---,0.10,VWS V13.00,2013-02-21 23:59:00,
2013-02-21 16:04:00,34.4,32.6,30.02,NE,45,3.0,4.0,93,0.02,,---,0.10,VWS V13.00,2013-02-22 00:04:00,
2013-02-21 16:09:00,34.4,32.6,30.02,NE,44,0.0,5.0,93,0.02,,---,0.10,VWS V13.00,2013-02-22 00:09:00,
2013-02-21 16:14:00,34.4,32.6,30.02,NE,44,0.0,5.0,93,0.02,,---,0.10,VWS V13.00,2013-02-22 00:14:00,
2013-02-21 16:19:00,34.4,32.6,30.02,NE,44,0.0,5.0,93,0.02,,---,0.10,VWS V13.00,2013-02-22 00:19:00,
2013-02-21 16:24:00,34.4,32.6,30.02,NE,44,0.0,5.0,93,0.02,,---,0.10,VWS V13.00,2013-02-22 00:24:00,
2013-02-21 16:29:00,34.4,32.6,30.02,NE,44,1.0,1.0,93,0.02,,---,0.10,VWS V13.00,2013-02-22 00:29:00,
2013-02-21 16:34:00,34.4,32.6,30.02,NE,44,0.0,1.0,93,0.01,,---,0.10,VWS V13.00,2013-02-22 00:34:00,
2013-02-21 16:39:00,34.4,32.6,30.02,NE,44,0.0,1.0,93,0.01,,---,0.10,VWS V13.00,2013-02-22 00:39:00,
2013-02-21 16:44:00,34.4,32.6,30.02,NE,44,0.0,1.0,93,0.01,,---,0.10,VWS V13.00,2013-02-22 00:44:00,
2013-02-21 16:49:00,34.4,32.6,30.02,NE,44,0.0,1.0,93,0.01,,---,0.10,VWS V13.00,2013-02-22 00:49:00,
2013-02-21 16:54:00,34.4,32.6,30.02,NE,44,0.0,1.0,93,0.01,,---,0.10,VWS V13.00,2013-02-22 00:54:00,
2013-02-21 16:59:00,34.4,32.6,30.02,NE,44,0.0,0.0,93,0.01,,---,0.10,VWS V13.00,2013-02-22 00:59:00,
2013-02-21 17:04:00,34.3,32.5,30.02,NE,44,0.0,0.0,93,0.00,,---,0.10,VWS V13.00,2013-02-22 01:04:00,
2013-02-21 17:09:00,34.3,32.5,30.02,NE,44,0.0,0.0,93,0.00,,---,0.10,VWS V13.00,2013-02-22 01:09:00,
2013-02-21 17:14:00,34.2,32.4,30.02,NE,44,0.0,0.0,93,0.00,,---,0.10,VWS V13.00,2013-02-22 01:14:00,
2013-02-21 17:19:00,34.1,32.3,30.02,NE,44,0.0,0.0,93,0.00,,---,0.10,VWS V13.00,2013-02-22 01:19:00,
2013-02-21 17:24:00,34.0,32.2,30.02,NE,44,0.0,1.0,93,0.00,,---,0.10,VWS V13.00,2013-02-22 01:24:00,
2013-02-21 17:29:00,34.0,32.2,30.01,NE,44,0.0,0.0,93,0.00,,---,0.10,VWS V13.00,2013-02-22 01:29:00,
2013-02-21 17:34:00,33.9,32.1,30.01,NE,44,0.0,0.0,93,0.00,,---,0.10,VWS V13.00,2013-02-22 01:34:00,
2013-02-21 17:39:00,33.9,32.1,30.01,NE,44,0.0,2.0,93,0.00,,---,0.10,VWS V13.00,2013-02-22 01:39:00,
2013-02-21 17:44:00,33.8,32.0,30.01,NE,44,0.0,2.0,93,0.00,,---,0.10,VWS V13.00,2013-02-22 01:44:00,
2013-02-21 17:49:00,33.8,32.0,30.01,NE,44,0.0,2.0,93,0.00,,---,0.10,VWS V13.00,2013-02-22 01:49:00,
2013-02-21 17:54:00,33.7,31.9,30.01,NE,44,0.0,2.0,93,0.00,,---,0.10,VWS V13.00,2013-02-22 01:54:00,
2013-02-21 17:59:00,33.6,31.8,30.01,NE,44,0.0,0.0,93,0.00,,---,0.10,VWS V13.00,2013-02-22 01:59:00,
2013-02-21 18:04:00,33.6,31.8,30.01,NE,44,0.0,0.0,93,0.00,,---,0.10,VWS V13.00,2013-02-22 02:04:00,
2013-02-21 18:09:00,33.5,31.7,30.01,NE,44,0.0,0.0,93,0.00,,---,0.10,VWS V13.00,2013-02-22 02:09:00,
2013-02-21 18:14:00,33.4,31.6,30.01,NE,44,0.0,0.0,93,0.00,,---,0.10,VWS V13.00,2013-02-22 02:14:00,
2013-02-21 18:19:00,33.3,31.5,30.02,NE,44,0.0,0.0,93,0.00,,---,0.10,VWS V13.00,2013-02-22 02:19:00,
2013-02-21 18:24:00,33.2,31.4,30.02,NE,44,0.0,0.0,93,0.00,,---,0.10,VWS V13.00,2013-02-22 02:24:00,
2013-02-21 18:29:00,33.2,31.4,30.02,NE,44,0.0,0.0,93,0.00,,---,0.10,VWS V13.00,2013-02-22 02:29:00,
2013-02-21 18:34:00,33.1,31.3,30.02,NE,44,0.0,0.0,93,0.00,,---,0.10,VWS V13.00,2013-02-22 02:34:00,
2013-02-21 18:39:00,33.0,31.2,30.02,NE,44,0.0,0.0,93,0.00,,---,0.10,VWS V13.00,2013-02-22 02:39:00,
2013-02-21 18:44:00,33.0,31.2,30.02,NE,44,0.0,0.0,93,0.00,,---,0.10,VWS V13.00,2013-02-22 02:44:00,
2013-02-21 18:49:00,32.9,31.1,30.03,NE,44,0.0,2.0,93,0.00,,---,0.10,VWS V13.00,2013-02-22 02:49:00,
2013-02-21 18:54:00,32.9,31.1,30.02,NE,44,0.0,2.0,93,0.00,,---,0.10,VWS V13.00,2013-02-22 02:54:00,
2013-02-21 18:59:00,32.8,31.0,30.02,NE,44,0.0,2.0,93,0.00,,---,0.10,VWS V13.00,2013-02-22 02:59:00,
2013-02-21 19:04:00,32.8,31.0,30.03,NE,44,0.0,1.0,93,0.00,,---,0.10,VWS V13.00,2013-02-22 03:04:00,
2013-02-21 19:09:00,32.7,30.9,30.02,NE,44,0.0,1.0,93,0.00,,---,0.10,VWS V13.00,2013-02-22 03:09:00,
2013-02-21 19:14:00,32.7,30.9,30.03,NE,44,0.0,2.0,93,0.00,,---,0.10,VWS V13.00,2013-02-22 03:14:00,
2013-02-21 19:19:00,32.6,30.8,30.02,NE,44,0.0,2.0,93,0.00,,---,0.10,VWS V13.00,2013-02-22 03:19:00,
2013-02-21 19:24:00,32.5,30.7,30.02,NE,44,0.0,2.0,93,0.00,,---,0.10,VWS V13.00,2013-02-22 03:24:00,
2013-02-21 19:29:00,32.5,30.7,30.03,NE,44,0.0,2.0,93,0.00,,---,0.10,VWS V13.00,2013-02-22 03:29:00,
2013-02-21 19:34:00,32.5,30.7,30.02,NE,44,0.0,2.0,93,0.00,,---,0.10,VWS V13.00,2013-02-22 03:34:00,
2013-02-21 19:39:00,32.5,30.7,30.02,NE,44,0.0,2.0,93,0.00,,---,0.10,VWS V13.00,2013-02-22 03:39:00,
2013-02-21 19:44:00,32.5,30.7,30.02,NE,44,0.0,2.0,93,0.00,,---,0.10,VWS V13.00,2013-02-22 03:44:00,
2013-02-21 19:49:00,32.5,30.7,30.02,NE,44,0.0,2.0,93,0.00,,---,0.10,VWS V13.00,2013-02-22 03:49:00,
2013-02-21 19:54:00,32.5,30.7,30.02,NE,44,0.0,3.0,93,0.00,,---,0.10,VWS V13.00,2013-02-22 03:54:00,
2013-02-21 19:59:00,32.5,30.7,30.02,NE,44,0.0,3.0,93,0.00,,---,0.10,VWS V13.00,2013-02-22 03:59:00,
2013-02-21 20:04:00,32.5,30.7,30.01,NE,44,0.0,3.0,93,0.00,,---,0.10,VWS V13.00,2013-02-22 04:04:00,
2013-02-21 20:09:00,32.6,30.8,30.01,SE,124,0.0,4.0,93,0.00,,---,0.10,VWS V13.00,2013-02-22 04:09:00,
2013-02-21 20:14:00,32.7,30.9,30.01,SE,124,2.0,4.0,93,0.00,,---,0.10,VWS V13.00,2013-02-22 04:14:00,
2013-02-21 20:19:00,32.8,31.3,30.01,ESE,118,1.0,4.0,94,0.00,,---,0.10,VWS V13.00,2013-02-22 04:19:00,
2013-02-21 20:24:00,32.9,31.4,30.01,ESE,118,2.0,4.0,94,0.00,,---,0.10,VWS V13.00,2013-02-22 04:24:00,
2013-02-21 20:29:00,33.0,31.5,30.01,ESE,109,2.0,6.0,94,0.00,,---,0.10,VWS V13.00,2013-02-22 04:29:00,
2013-02-21 20:34:00,33.1,31.6,30.01,SE,128,5.0,7.0,94,0.00,,---,0.10,VWS V13.00,2013-02-22 04:34:00,
2013-02-21 20:39:00,33.2,31.7,30.01,ESE,123,3.0,10.0,94,0.00,,---,0.10,VWS V13.00,2013-02-22 04:39:00,
2013-02-21 20:44:00,33.3,31.8,30.01,SE,130,4.0,10.0,94,0.00,,---,0.10,VWS V13.00,2013-02-22 04:44:00,
2013-02-21 20:49:00,33.3,31.8,30.01,SE,134,2.0,10.0,94,0.00,,---,0.10,VWS V13.00,2013-02-22 04:49:00,
2013-02-21 20:54:00,33.3,31.5,30.01,SE,140,3.0,10.0,93,0.00,,---,0.10,VWS V13.00,2013-02-22 04:54:00,
2013-02-21 20:59:00,33.4,31.6,30.01,SE,140,2.0,10.0,93,0.00,,---,0.10,VWS V13.00,2013-02-22 04:59:00,
2013-02-21 21:00:00,33.4,31.6,30.01,ESE,111,3.0,5.0,93,0.00,,---,0.10,VWS V13.00,2013-02-22 05:00:00,
2013-02-21 21:05:00,33.4,31.6,30.01,ESE,121,1.0,5.0,93,0.00,,---,0.10,VWS V13.00,2013-02-22 05:05:00,
2013-02-21 21:10:00,33.4,31.6,30.01,SE,132,2.0,5.0,93,0.00,,---,0.10,VWS V13.00,2013-02-22 05:10:00,
2013-02-21 21:15:00,33.4,31.6,30.01,ESE,119,6.0,7.0,93,0.00,,---,0.10,VWS V13.00,2013-02-22 05:15:00,
2013-02-21 21:20:00,33.4,31.3,30.01,SE,145,3.0,7.0,92,0.00,,---,0.10,VWS V13.00,2013-02-22 05:20:00,
2013-02-21 21:25:00,33.5,31.4,30.01,ESE,110,3.0,7.0,92,0.00,,---,0.10,VWS V13.00,2013-02-22 05:25:00,
2013-02-21 21:30:00,33.5,31.4,30.01,SE,144,4.0,4.0,92,0.00,,---,0.10,VWS V13.00,2013-02-22 05:30:00,
2013-02-21 21:35:00,33.5,31.4,30.01,SE,138,0.0,5.0,92,0.00,,---,0.10,VWS V13.00,2013-02-22 05:35:00,
2013-02-21 21:40:00,33.5,31.2,30.01,SE,126,3.0,6.0,91,0.00,,---,0.10,VWS V13.00,2013-02-22 05:40:00,
2013-02-21 21:45:00,33.5,31.2,30.01,SE,128,2.0,6.0,91,0.00,,---,0.10,VWS V13.00,2013-02-22 05:45:00,
2013-02-21 21:50:00,33.5,31.2,30.01,ESE,123,2.0,6.0,91,0.00,,---,0.10,VWS V13.00,2013-02-22 05:50:00,
2013-02-21 21:55:00,33.5,31.2,30.01,ESE,115,1.0,6.0,91,0.00,,---,0.10,VWS V13.00,2013-02-22 05:55:00,
2013-02-21 22:00:00,33.5,31.2,30.00,ESE,119,0.0,2.0,91,0.00,,---,0.10,VWS V13.00,2013-02-22 06:00:00,
2013-02-21 22:05:00,33.5,31.2,30.00,SE,129,1.0,3.0,91,0.00,,---,0.10,VWS V13.00,2013-02-22 06:05:00,
2013-02-21 22:10:00,33.4,31.1,30.01,SE,127,0.0,3.0,91,0.00,,---,0.10,VWS V13.00,2013-02-22 06:10:00,
2013-02-21 22:15:00,33.4,30.8,30.01,SE,127,4.0,4.0,90,0.00,,---,0.10,VWS V13.00,2013-02-22 06:15:00,
2013-02-21 22:20:00,33.4,30.8,30.02,SE,128,1.0,4.0,90,0.00,,---,0.10,VWS V13.00,2013-02-22 06:20:00,
2013-02-21 22:25:00,33.4,30.8,30.02,SE,128,1.0,4.0,90,0.00,,---,0.10,VWS V13.00,2013-02-22 06:25:00,
2013-02-21 22:30:00,33.4,30.8,30.01,SE,128,0.0,0.0,90,0.00,,---,0.10,VWS V13.00,2013-02-22 06:30:00,
2013-02-21 22:35:00,33.4,30.8,30.01,SE,128,0.0,1.0,90,0.00,,---,0.10,VWS V13.00,2013-02-22 06:35:00,
2013-02-21 22:40:00,33.4,30.8,30.01,SE,128,0.0,2.0,90,0.00,,---,0.10,VWS V13.00,2013-02-22 06:40:00,
2013-02-21 22:45:00,33.4,30.8,30.01,SE,128,0.0,2.0,90,0.00,,---,0.10,VWS V13.00,2013-02-22 06:45:00,
2013-02-21 22:50:00,33.4,30.8,30.01,SE,128,0.0,2.0,90,0.00,,---,0.10,VWS V13.00,2013-02-22 06:50:00,
2013-02-21 22:55:00,33.3,30.7,30.01,SE,128,0.0,2.0,90,0.00,,---,0.10,VWS V13.00,2013-02-22 06:55:00,
2013-02-21 23:00:00,33.3,30.7,30.01,SE,128,0.0,0.0,90,0.00,,---,0.10,VWS V13.00,2013-02-22 07:00:00,
2013-02-21 23:05:00,33.2,30.6,30.01,SE,128,1.0,2.0,90,0.00,,---,0.10,VWS V13.00,2013-02-22 07:05:00,
2013-02-21 23:10:00,33.1,30.5,30.01,SE,128,0.0,3.0,90,0.00,,---,0.10,VWS V13.00,2013-02-22 07:10:00,
2013-02-21 23:15:00,33.0,30.4,30.01,SE,128,0.0,3.0,90,0.00,,---,0.10,VWS V13.00,2013-02-22 07:15:00,
2013-02-21 23:20:00,33.0,30.4,30.01,SE,128,0.0,3.0,90,0.00,,---,0.10,VWS V13.00,2013-02-22 07:20:00,
2013-02-21 23:25:00,32.9,30.3,30.01,SE,128,0.0,3.0,90,0.00,,---,0.10,VWS V13.00,2013-02-22 07:25:00,
2013-02-21 23:30:00,32.8,30.2,30.00,SE,128,0.0,1.0,90,0.00,,---,0.10,VWS V13.00,2013-02-22 07:30:00,
2013-02-21 23:35:00,32.8,30.2,30.00,SE,128,1.0,2.0,90,0.00,,---,0.10,VWS V13.00,2013-02-22 07:35:00,
2013-02-21 23:40:00,32.7,30.1,30.00,SE,128,3.0,3.0,90,0.00,,---,0.10,VWS V13.00,2013-02-22 07:40:00,
2013-02-21 23:45:00,32.6,30.0,30.00,SE,128,0.0,4.0,90,0.00,,---,0.10,VWS V13.00,2013-02-22 07:45:00,
2013-02-21 23:50:00,32.5,29.9,30.00,SE,128,0.0,4.0,90,0.00,,---,0.10,VWS V13.00,2013-02-22 07:50:00,
2013-02-21 23:55:00,32.4,29.8,30.00,SE,128,1.0,4.0,90,0.00,,---,0.10,VWS V13.00,2013-02-22 07:55:00,